Tracking 19576 objects as of 16-Feb-2019
HD Live streaming from Space Station
objects crossing your sky now

COSMOS 1806

Track COSMOS 1806 now!
COSMOS 1806 is classified as:


NORAD ID: 17213
Int'l Code: 1986-098A
Perigee: 5,565.7 km
Apogee: 34,790.5 km
Inclination: 68.6 °
Period: 717.5 minutes
Semi major axis: 26549 km
RCS: 14.9345 m2 (large)
Launch date: December 12, 1986
Source: Commonwealth of Independent States (former USSR) (CIS)
Launch site: PLESETSK MISSILE AND SPACE COMPLEX (PKMTR)
aabbcc
Your satellite tracking list
Your tracking list is empty




NASA's NSSDC Master Catalog

Two Line Element Set (TLE):
1 17213U 86098A   19046.77882464 -.00000501 +00000-0 +00000-0 0  9998
2 17213 068.6471 260.3455 5503911 142.0876 213.5613 02.00690885235587
Source of the keplerian elements: AFSPC